Kaltag, AK

3:35 PM AKDT on July 27, 2017 (GMT -0800)
Kaltag

Weather History for PAKV - February, 2012

Change the Weather History Date:

Wednesday, February 22, 2012

  Actual Average (PAGA) Record (PAGA)
Temperature  
Mean Temperature 8 °F -  
Max Temperature 14 °F 4 °F 37 °F (2015)
Min Temperature 1 °F -17 °F -44 °F (1966)
Degree Days  
Heating Degree Days 58    
Moisture  
Dew Point 5 °F    
Average Humidity 85    
Maximum Humidity 92    
Minimum Humidity 79    
Precipitation  
Precipitation 0.01 in - - ()
Sea Level Pressure  
Sea Level Pressure 29.79 in    
Wind  
Wind Speed 0 mph (North)    
Max Wind Speed 0 mph    
Max Gust Speed -    
Visibility 8 miles    
Events Snow    
Averages and records for this station are not official NWS values.
T = Trace of Precipitation, MM = Missing Value Source: NWS Daily Summary

Daily Weather History Graph

Daily Weather History Graph

Search for Another Location

Airport or City:

Trip Planner

Search our weather history database for the weather conditions in past years. The results will help you decide how hot, cold, wet, or windy it might be!

Date:

Astronomy

Feb. 22, 2012 Rise Set
Actual Time 9:08 AM AKST 6:30 PM AKST
Civil Twilight 8:18 AM AKST 7:19 PM AKST
Nautical Twilight 7:22 AM AKST 8:15 PM AKST
Astronomical Twilight 6:26 AM AKST 9:11 PM AKST
Moon 8:33 AM AKST (2/22) 8:37 PM AKST (2/22)
Length of Visible Light 11h 01m
Length of Day
9h 21m
New Moon, 1% of the Moon is Illuminated
Feb 22
New Moon
Feb 29
First Quarter
Mar 8
Full
Mar 14
Last Quarter
Mar 22
New

Hourly Weather History & Observations

Time (AKST) Temp. Dew Point Humidity Pressure Visibility Wind Dir Wind Speed Gust Speed Precip Events Conditions
12:53 AM 3.9 °F 1.9 °F 91% 29.56 in 10.0 mi Calm Calm - N/A   Overcast
1:53 AM 5.0 °F 1.0 °F 84% 29.58 in 6.0 mi Calm Calm - 0.00 in Snow Light Snow
3:53 AM 1.9 °F -2.0 °F 83% 29.63 in 10.0 mi Calm Calm - 0.00 in   Clear
4:53 AM 3.9 °F -0.0 °F 84% 29.64 in 6.0 mi Calm Calm - 0.00 in Snow Light Snow
5:37 AM 3.2 °F 1.4 °F 92% 29.64 in 2.5 mi Calm Calm - 0.00 in Snow Light Snow
5:45 AM 5.0 °F 1.4 °F 85% 29.64 in 6.0 mi Calm Calm - 0.00 in Snow Light Snow
5:53 AM 5.0 °F 1.9 °F 87% 29.66 in 6.0 mi Calm Calm - 0.00 in Snow Light Snow
6:25 AM 5.0 °F 1.4 °F 85% 29.65 in 2.0 mi Calm Calm - 0.01 in Snow Light Snow
6:46 AM 6.8 °F 1.4 °F 79% 29.66 in 4.0 mi Calm Calm - 0.01 in Snow Light Snow
6:53 AM 5.0 °F 1.9 °F 87% 29.68 in 4.0 mi Calm Calm - 0.01 in Snow Light Snow
7:53 AM 3.9 °F 1.0 °F 88% 29.70 in 4.0 mi Calm Calm - 0.00 in Snow Light Snow
8:53 AM 6.1 °F 3.0 °F 87% 29.71 in 10.0 mi Calm Calm - 0.00 in   Overcast
9:53 AM 6.1 °F 3.0 °F 87% 29.74 in 10.0 mi Calm Calm - N/A   Overcast
10:53 AM 8.1 °F 3.9 °F 83% 29.76 in 10.0 mi Calm Calm - N/A   Overcast
11:53 AM 9.0 °F 6.1 °F 88% 29.79 in 10.0 mi Calm Calm - N/A   Overcast
12:53 PM 10.0 °F 6.1 °F 84% 29.81 in 10.0 mi Calm Calm - N/A   Overcast
1:36 PM 12.2 °F 6.8 °F 79% 29.81 in 10.0 mi Calm Calm - N/A   Overcast
1:53 PM 12.9 °F 8.1 °F 81% 29.83 in 10.0 mi Calm Calm - N/A   Overcast
2:53 PM 12.9 °F 9.0 °F 84% 29.84 in 10.0 mi Calm Calm - N/A   Overcast
3:53 PM 14.0 °F 9.0 °F 80% 29.86 in 8.0 mi Calm Calm - N/A   Overcast
4:53 PM 12.9 °F 9.0 °F 84% 29.88 in 10.0 mi Calm Calm - N/A   Overcast
5:53 PM 12.9 °F 9.0 °F 84% 29.90 in 10.0 mi Calm Calm - N/A   Overcast
6:53 PM 12.9 °F 9.0 °F 84% 29.91 in 10.0 mi Calm Calm - N/A   Overcast
7:53 PM 12.9 °F 9.0 °F 84% 29.94 in 10.0 mi Calm Calm - 0.00 in   Overcast
8:35 PM 12.2 °F 8.6 °F 85% 29.93 in 10.0 mi Calm Calm - 0.00 in   Overcast
8:45 PM 12.2 °F 8.6 °F 85% 29.93 in 10.0 mi Calm Calm - 0.00 in   Overcast
8:53 PM 10.9 °F 8.1 °F 88% 29.96 in 10.0 mi Calm Calm - 0.00 in   Overcast
9:53 PM 10.9 °F 8.1 °F 88% 29.98 in 10.0 mi Calm Calm - N/A   Overcast
10:53 PM 10.9 °F 8.1 °F 88% 30.00 in 10.0 mi Calm Calm - N/A   Overcast
11:53 PM 10.0 °F 7.0 °F 87% 30.02 in 10.0 mi Calm Calm - 0.00 in   Overcast